Temp
18 18 19 19 19 19 19 19 20 20 20 20 20 21 21 21 21 22 22 22 22 22 22 22 22 23 23 23 23 23 24 24 23 22 22 24 26 26 25 25 25 24 23 23 23 23 24 24 25 25 24 24 24 24 24 24 25 24 24 23 23 24 25 27 28 28 28 28 28 28 28 27 27 27 27 26 26 26 26 26 27 27 28 27 27 28 27 25
18 18 18 18 19 19 19 20 20 20 20 20 20 21 21 21 21 22 22 22 22 22 22 22 22 23 23 23 23 23 24 24 23 23 24 24 25 25 25 25 24 24 23 23 24 24 25 25 25 25 24 24 24 24 23 24 24 23 24 23 23 25 27 28 28 29 28 28 28 28 28 27 27 27 27 26 26 26 26 26 27 27 28 28 28 28 27 25
18 18 18 18 18 18 19 20 20 21 21 20 21 21 21 21 21 21 22 22 22 22 22 22 22 22 22 23 23 23 23 22 23 24 24 24 24 25 25 25 24 24 24 24 24 25 26 26 26 25 25 24 25 24 23 24 24 24 24 23 24 26 27 28 29 28 28 28 27 27 27 27 26 27 27 26 25 26 25 25 26 27 28 29 29 28 27 25
18 18 18 19 18 18 19 20 20 20 21 21 21 21 21 20 20 21 21 21 22 22 22 22 22 22 22 22 23 23 22 22 24 25 25 25 25 25 25 25 25 24 24 24 24 25 26 26 26 26 25 25 25 25 24 24 24 25 24 23 25 27 27 27 28 28 28 27 26 26 26 25 26 27 26 26 25 25 25 26 26 27 27 28 29 28 27 27
17 18 19 19 19 19 19 19 19 20 20 20 21 21 20 20 20 20 20 21 21 21 22 22 22 21 22 22 22 23 23 23 25 25 25 25 25 25 25 25 25 24 23 23 24 25 25 26 26 25 25 24 25 25 25 25 25 24 24 25 26 26 26 27 28 27 27 26 26 25 25 25 26 26 26 26 24 24 26 27 27 27 27 27 28 27 27 27
16 17 17 18 19 19 19 19 19 19 19 19 20 20 20 20 20 20 20 20 21 21 21 21 21 21 21 22 22 22 23 24 26 25 25 25 24 24 25 25 24 24 23 22 24 25 25 25 25 25 24 24 25 25 26 27 26 24 24 26 26 26 26 26 28 26 25 25 25 25 25 25 25 25 26 26 25 25 26 27 27 27 27 27 27 27 27 28
14 15 16 17 17 17 17 18 18 18 18 18 18 18 18 19 19 19 20 20 20 20 20 20 20 20 21 21 21 21 22 24 26 25 25 25 24 24 24 24 24 23 22 23 24 25 24 25 25 25 24 24 25 26 26 27 27 25 24 25 25 26 26 26 27 26 25 25 25 25 25 24 24 24 25 25 25 26 27 27 27 27 27 27 27 27 28 28
13 14 15 15 15 15 16 17 17 17 17 17 17 18 18 18 19 19 19 20 20 20 20 20 20 20 20 21 21 21 22 24 25 25 25 25 24 24 24 24 23 23 22 23 24 25 25 25 25 25 25 25 25 26 26 26 26 25 24 25 25 26 26 26 26 26 25 25 25 25 24 24 24 24 24 25 25 26 26 27 27 27 27 27 27 28 28 27
12 13 14 14 14 15 16 16 16 17 17 17 17 17 18 18 19 19 19 20 20 20 20 20 19 19 20 20 21 22 23 24 25 24 24 24 24 23 23 23 23 22 22 23 25 25 25 25 25 25 24 25 25 25 25 25 24 25 25 25 25 25 25 25 25 25 25 25 25 24 23 24 24 25 24 25 26 26 27 27 27 27 27 27 28 28 28 28
12 13 13 13 14 14 15 15 16 16 16 16 17 17 17 18 18 19 19 19 20 20 20 20 19 19 19 19 20 21 22 24 23 23 24 24 23 23 22 22 22 22 22 23 25 25 25 25 25 24 23 24 25 24 25 25 24 24 24 24 24 24 24 24 24 24 25 25 25 24 24 24 25 24 24 25 27 27 27 27 28 28 27 27 27 27 28 28
11 13 13 13 14 14 15 15 15 16 16 16 16 17 17 17 18 18 19 19 20 20 20 19 19 18 18 19 20 22 23 23 23 23 23 23 22 22 22 21 21 22 22 24 25 25 25 25 25 24 23 23 24 24 25 24 24 24 23 23 23 23 24 24 24 24 25 25 25 25 24 24 25 24 23 25 26 26 27 27 27 28 27 27 27 27 27 27
12 13 13 13 14 14 14 15 15 15 16 16 16 16 17 18 18 19 19 19 19 19 20 19 18 18 17 18 20 22 23 23 23 23 22 22 21 21 21 21 21 21 22 23 24 24 23 23 23 23 23 23 23 24 23 22 23 23 23 22 22 23 23 24 25 25 25 25 25 25 23 23 24 24 24 25 26 26 27 27 27 27 27 27 27 27 27 27
13 13 13 13 14 14 15 15 15 15 15 16 16 17 17 18 18 19 19 19 19 19 19 19 18 17 16 19 21 22 22 22 22 22 21 21 21 21 21 21 21 21 21 21 21 22 22 22 22 22 23 23 22 23 22 22 23 22 22 22 22 22 23 25 26 26 26 24 25 24 21 22 25 25 26 27 27 27 27 27 27 27 27 27 27 27 27 27
13 13 14 14 14 14 15 15 15 15 15 16 16 17 17 18 18 19 19 19 19 19 19 18 18 16 16 20 22 21 21 21 21 20 20 20 20 20 20 20 20 20 20 20 20 21 21 22 22 22 22 22 22 23 22 22 23 22 22 22 22 21 22 26 27 26 25 23 24 24 21 22 25 26 27 27 27 27 26 26 26 26 26 26 26 26 27 27
13 13 14 14 14 14 15 15 15 15 15 16 16 17 17 18 18 18 18 19 19 19 18 17 17 16 17 21 21 21 21 21 20 19 19 20 20 20 20 19 20 20 20 20 20 20 21 21 21 21 22 23 22 22 21 22 23 23 22 21 22 21 21 26 27 25 25 23 23 23 21 22 24 26 27 27 26 26 25 25 25 25 26 26 26 27 27 27
13 13 13 14 14 14 15 15 15 15 15 16 16 17 17 18 17 17 18 18 18 18 17 16 16 16 19 21 20 20 21 20 20 19 19 19 20 20 19 19 19 19 19 20 20 20 21 21 21 21 21 22 22 21 20 21 21 23 22 20 21 22 22 25 26 26 25 23 23 23 22 22 24 25 26 26 26 26 25 25 25 25 26 26 26 27 27 25
12 12 13 14 14 14 15 15 15 15 16 16 17 17 17 17 17 17 17 17 17 17 16 16 17 17 20 21 20 21 20 19 19 18 19 19 19 20 19 19 19 19 20 20 20 20 21 21 21 21 21 21 21 21 20 20 20 22 22 21 22 23 22 23 25 26 25 24 23 23 22 22 23 24 25 26 26 25 25 25 25 26 26 26 26 26 24 21
11 12 12 13 13 14 14 15 15 15 16 16 17 17 17 16 16 16 16 16 16 16 16 17 17 19 20 20 21 21 20 19 18 18 18 19 19 19 20 20 20 20 20 20 20 20 20 20 21 21 21 21 21 21 20 20 21 21 21 21 22 23 22 22 23 25 25 24 24 23 22 22 24 24 25 25 26 25 25 25 25 25 26 26 25 23 21 18
12 12 12 12 13 13 14 15 15 15 16 17 17 17 16 16 16 16 15 16 16 18 19 18 18 20 22 22 21 20 19 19 18 18 18 18 19 19 20 20 20 20 20 19 19 20 20 20 20 20 20 21 21 21 21 21 22 22 22 22 21 21 22 23 23 25 25 24 24 24 23 23 24 24 24 25 25 25 25 25 25 25 26 25 23 20 18 17
12 12 12 12 13 13 14 14 15 15 16 17 17 16 17 17 17 17 17 17 18 20 21 21 21 22 22 22 20 18 18 18 18 18 18 18 19 19 20 20 20 19 20 20 19 20 20 19 19 19 20 21 22 23 23 23 23 23 22 22 22 21 21 23 24 25 25 23 23 24 23 23 23 23 24 24 24 24 24 25 25 25 24 22 20 19 18 17
12 12 12 12 13 13 14 15 15 15 15 16 16 17 18 17 18 18 16 18 20 20 21 22 22 22 22 22 19 18 19 19 18 18 17 18 19 19 19 20 19 18 20 21 19 20 20 19 19 20 21 22 23 24 24 24 23 23 22 21 21 21 21 23 23 24 24 22 22 23 22 22 23 23 23 24 24 24 24 24 23 22 21 20 19 18 17 16
13 13 13 13 13 13 14 14 15 15 16 16 16 18 18 16 16 16 15 17 19 20 20 21 22 22 22 22 19 20 20 20 19 17 17 18 18 19 20 20 19 19 21 21 19 19 18 18 20 21 22 23 23 23 23 23 23 22 21 20 20 21 21 22 23 24 23 21 22 22 21 21 22 23 23 23 24 24 22 21 20 19 18 18 17 16 15 15
13 13 13 13 13 13 14 14 14 15 15 16 16 17 16 15 15 15 15 16 17 19 20 20 21 21 21 21 19 19 19 19 20 17 17 18 18 19 20 20 20 21 21 20 19 19 18 19 21 22 22 22 22 23 23 23 22 21 21 20 20 20 21 21 22 23 22 22 22 21 21 21 22 22 23 24 25 22 20 19 18 17 16 16 15 15 14 13
13 13 13 13 13 14 14 14 14 15 15 15 16 16 15 15 15 14 14 16 18 19 19 19 20 20 20 19 18 19 19 20 20 18 17 18 19 19 19 20 20 21 21 21 21 20 20 22 23 22 22 22 22 22 22 21 21 21 21 20 20 21 21 21 21 22 21 21 21 21 20 20 22 23 24 25 24 21 19 18 17 17 16 15 14 13 13 12
13 13 13 13 13 14 14 14 15 15 15 15 15 15 15 15 15 14 14 16 18 18 18 18 19 18 18 18 17 18 19 20 19 18 17 18 19 19 20 21 21 20 21 21 21 20 20 22 22 22 22 22 21 21 21 21 19 20 21 21 21 21 21 20 20 20 19 20 20 20 19 19 22 23 23 25 23 19 19 18 17 16 15 14 14 13 12 12
13 13 13 13 13 13 14 14 15 15 15 15 15 15 15 14 15 14 15 17 18 18 18 18 18 18 17 17 17 18 19 18 16 16 17 17 17 19 19 21 21 20 21 21 21 21 21 21 21 21 21 21 20 19 20 20 19 19 20 20 20 20 20 20 20 19 18 19 20 20 19 18 20 22 23 24 21 18 18 17 16 16 14 14 13 12 12 11
13 13 14 13 13 13 14 14 14 15 15 15 15 15 14 15 14 14 16 17 18 20 19 17 17 18 17 17 17 18 18 17 15 16 17 16 17 18 18 19 20 20 20 20 19 20 21 20 19 19 20 20 19 19 20 20 19 19 19 19 19 20 19 19 19 18 18 19 19 20 20 18 18 20 23 24 20 18 18 17 16 15 14 13 12 11 11 10
13 13 13 13 13 13 14 14 14 15 15 14 14 14 14 14 14 15 16 17 19 21 19 17 17 17 17 17 17 18 17 17 17 16 16 16 17 18 18 19 20 20 20 19 18 20 21 19 19 19 18 18 18 19 20 20 20 18 18 18 19 19 18 19 18 18 18 18 17 19 20 18 18 20 24 24 20 17 17 16 15 14 13 12 12 11 11 10
13 13 13 13 13 13 13 13 13 14 14 14 14 14 14 14 14 16 16 16 19 21 19 18 17 16 17 17 17 18 18 17 18 16 16 17 16 17 17 18 19 19 20 19 18 19 19 18 18 19 18 18 19 18 18 20 20 18 17 18 18 18 18 18 18 17 18 17 16 19 19 18 18 21 22 23 20 18 17 16 15 13 13 12 11 11 10 10
12 12 12 12 12 12 12 12 13 13 13 13 14 14 14 14 15 16 16 16 19 20 19 18 17 17 18 18 18 18 18 18 18 16 16 17 16 17 17 17 18 18 19 19 19 19 18 17 17 19 19 19 19 17 16 17 18 17 17 18 18 18 18 17 18 17 17 16 17 19 19 18 19 20 22 22 21 19 17 15 14 12 12 11 11 10 10 9
12 12 12 12 12 12 12 12 12 13 13 13 13 13 14 14 15 16 16 17 18 18 19 18 18 18 18 19 19 18 18 18 17 17 17 17 16 16 17 17 17 17 17 17 17 18 18 17 17 19 19 19 19 17 15 15 16 17 18 18 17 18 18 17 17 17 16 17 19 20 20 19 18 20 22 22 21 19 17 15 14 12 11 10 10 9 9 9
12 12 12 12 12 12 12 12 13 13 13 13 13 13 14 14 15 15 16 18 18 18 19 18 18 19 19 19 19 18 18 18 18 18 17 17 17 17 17 17 18 18 17 18 18 18 17 17 18 18 18 18 18 18 16 15 16 17 17 17 16 17 18 17 17 17 17 17 19 20 20 19 19 21 23 21 18 18 18 15 13 11 10 10 9 9 9 8
12 12 12 11 11 12 12 12 12 12 12 12 12 13 14 14 15 16 17 18 19 18 18 18 18 19 19 19 19 18 18 17 17 17 17 18 18 18 18 19 19 19 18 19 18 18 18 17 17 17 17 18 18 18 17 17 16 16 17 17 17 17 17 17 17 18 18 18 18 19 19 18 19 21 20 17 14 14 14 13 12 11 10 9 9 9 8 8
11 11 11 11 11 11 11 12 12 12 11 12 13 13 14 14 15 16 17 18 19 18 18 18 17 18 18 18 18 18 18 17 17 16 17 17 17 17 19 19 19 19 19 18 18 18 18 17 17 18 18 17 17 18 19 18 17 16 18 19 18 18 17 16 17 18 18 18 18 18 18 18 20 19 16 14 12 12 11 10 10 10 9 9 9 8 8 7
11 11 11 11 11 11 11 12 12 12 11 12 13 13 14 15 16 16 17 18 19 18 17 17 17 17 17 18 17 18 18 17 16 16 16 17 17 18 19 19 19 19 18 18 18 18 17 18 18 17 17 17 17 18 19 19 18 17 18 19 18 18 18 17 17 18 17 17 17 18 18 19 20 17 14 13 12 11 10 10 9 9 9 9 8 8 7 7
10 10 10 10 11 11 11 11 12 11 11 12 13 13 14 15 16 17 17 18 19 18 17 16 17 17 17 18 17 17 17 17 16 16 16 17 17 18 19 20 19 19 19 18 18 18 17 17 18 16 17 17 16 17 18 18 18 17 17 18 17 17 18 17 17 18 17 15 16 18 18 19 20 16 13 13 12 11 11 10 9 9 8 8 7 7 7 6
9 9 9 10 10 11 11 11 11 11 11 12 13 14 14 15 17 17 17 18 17 17 17 17 17 17 17 18 18 17 17 17 16 16 17 17 18 18 18 19 19 18 19 19 18 18 17 17 17 17 17 16 14 15 17 17 17 17 17 17 17 17 17 17 16 16 16 15 16 18 17 17 18 17 14 13 12 11 10 10 9 8 8 7 7 7 7 6
9 9 9 10 11 11 11 11 11 10 11 13 13 14 15 15 17 17 17 17 17 17 17 17 17 17 17 18 18 17 16 17 17 16 17 17 18 18 19 18 17 17 18 18 17 18 17 16 17 17 17 16 15 15 16 16 15 16 16 16 16 16 16 17 16 15 15 14 15 17 17 17 18 17 15 14 12 11 10 10 9 8 8 7 7 7 7 6
8 9 10 10 11 11 11 11 10 10 12 13 13 13 14 15 16 16 16 16 16 16 16 16 16 16 17 17 17 17 16 17 17 16 17 17 18 19 19 18 16 16 17 17 17 17 17 16 15 16 16 16 16 16 16 16 15 15 15 15 16 16 15 16 16 15 15 14 14 15 16 17 18 17 16 14 13 11 11 10 9 9 8 7 7 7 6 6
8 10 10 10 10 10 10 10 10 11 12 13 13 13 14 14 15 15 15 15 15 15 15 16 16 15 16 16 16 16 16 17 17 16 17 17 18 17 17 17 16 16 16 17 17 17 16 15 15 15 16 16 16 16 16 16 16 15 14 15 16 15 15 15 15 15 15 14 14 14 14 16 16 15 14 14 13 12 11 10 9 8 8 8 7 7 6 6
9 10 10 9 8 9 10 10 11 11 12 13 13 13 13 14 14 14 14 14 14 14 14 14 15 15 15 15 15 15 16 16 16 16 16 16 17 16 14 14 15 15 15 16 16 15 15 15 14 14 15 14 15 17 17 16 16 15 14 15 15 15 15 13 13 15 15 14 14 13 13 15 15 13 14 13 12 12 11 9 9 8 8 7 7 7 6 6
9 10 10 8 8 9 10 11 11 12 12 12 13 13 14 14 14 14 13 13 13 14 13 13 14 14 14 14 15 15 15 15 15 15 15 16 17 16 14 13 15 15 15 15 14 14 14 13 12 12 13 14 15 16 17 16 17 16 15 15 15 15 14 13 12 13 14 13 14 13 12 14 13 11 13 12 11 11 10 9 9 8 8 7 6 6 6 5
9 10 9 8 8 9 10 11 11 11 12 13 14 14 14 14 14 14 14 13 13 13 13 13 14 14 14 15 15 15 15 15 15 15 15 15 15 15 14 14 14 14 14 14 13 13 13 12 11 12 13 14 15 16 15 15 15 15 15 14 14 14 13 12 12 12 11 11 13 12 11 13 12 11 12 11 11 11 10 9 9 8 7 7 6 6 6 6
10 10 8 8 8 9 10 11 11 11 11 12 13 13 14 14 14 14 14 14 14 14 14 14 14 14 15 15 15 15 15 14 14 14 14 14 14 13 13 14 14 14 13 13 13 12 12 12 11 11 12 12 13 14 14 13 13 13 12 13 12 12 12 11 11 11 10 11 12 11 11 13 12 10 10 11 10 10 10 10 9 8 8 7 7 7 7 7
11 10 9 8 8 9 10 11 11 12 12 12 12 13 13 14 14 14 14 14 14 14 14 14 14 15 15 15 14 14 14 14 13 13 14 14 13 11 12 13 13 12 12 12 13 12 11 12 12 11 10 11 11 12 12 12 12 11 12 12 12 13 12 12 11 10 10 11 12 10 11 12 12 11 11 11 10 10 10 10 9 9 8 7 7 7 7 6
11 10 9 8 8 9 9 10 10 11 12 12 12 13 13 13 14 14 14 14 14 14 14 14 14 14 13 14 13 13 13 13 13 13 13 13 12 11 11 12 11 11 10 11 12 12 11 11 11 11 10 11 11 12 12 12 11 11 12 12 12 12 12 12 10 10 10 10 10 10 11 11 12 12 13 12 11 10 10 10 9 9 8 7 7 7 6 6
9 10 10 9 9 9 9 9 10 10 12 13 12 13 13 13 13 13 13 14 14 14 14 13 13 12 12 12 12 12 13 13 13 13 12 13 12 11 10 11 10 10 10 11 11 11 10 10 11 11 10 11 11 11 12 12 11 11 11 11 11 12 11 11 10 10 10 9 9 11 11 10 11 12 12 12 12 11 12 11 9 8 7 7 6 6 6 6
8 9 10 10 9 9 9 9 10 10 11 12 12 13 13 13 13 13 12 13 13 13 13 12 12 12 12 13 12 12 12 13 12 12 12 12 12 10 10 10 10 9 10 10 11 11 10 9 10 10 10 10 11 11 11 11 11 11 11 11 11 11 11 10 10 10 10 9 9 10 11 10 10 11 11 12 12 11 11 10 9 7 7 6 6 5 5 5
8 8 9 10 9 9 10 10 10 10 10 11 11 12 12 12 13 13 13 12 11 12 12 12 12 12 12 13 12 12 12 12 11 11 10 10 10 10 10 10 9 9 9 9 10 11 9 9 9 10 9 9 10 10 10 10 10 10 10 10 10 10 10 10 10 10 10 9 9 10 10 9 10 11 11 11 10 10 9 8 7 7 6 6 6 6 6 6
7 7 7 9 9 8 9 10 10 9 10 10 10 11 12 12 12 13 13 11 10 11 12 11 12 11 11 11 12 11 11 10 10 10 9 8 9 9 9 9 9 9 9 9 9 10 9 8 9 9 8 8 9 9 9 10 9 9 9 9 9 9 9 9 9 9 9 9 9 9 9 9 10 11 10 9 8 8 7 7 7 7 7 6 6 6 6 6
6 6 6 7 8 8 8 9 10 9 9 10 10 10 11 11 12 12 12 11 10 11 12 11 11 9 9 10 11 10 10 9 9 9 8 8 9 9 8 9 9 8 8 8 8 9 8 8 8 8 7 7 8 8 8 9 9 8 8 8 8 8 8 8 9 9 9 8 8 8 8 8 9 9 8 8 8 7 7 7 7 6 6 6 6 6 6 6
6 6 6 6 7 9 8 8 9 9 9 10 10 11 11 11 12 12 11 9 9 9 10 11 10 9 9 9 9 8 8 8 8 8 8 7 8 8 8 8 8 8 8 8 8 8 8 7 7 7 6 6 8 8 7 7 7 6 7 8 8 8 8 8 8 9 9 9 8 7 8 8 9 8 7 7 7 6 6 6 6 6 6 6 6 6 6 6
Height
818 818 817 817 817 817 816 816 816 816 816 815 815 815 815 815 814 814 814 813 813 813 813 812 811 811 810 809 808 807 806 805 804 803 803 800 800 800 800 801 800 801 802 803 804 804 804 805 805 805 806 806 807 807 807 807 806 812 818 825 826 820 812 803 800 799 799 799 796 794 793 797 799 795 791 791 793 794 792 788 784 782 778 776 774 773 774 773
817 817 817 817 817 817 816 816 816 815 815 815 814 815 814 814 814 813 813 813 813 812 812 811 811 811 810 809 808 807 805 804 803 801 800 798 799 800 800 800 801 801 802 803 804 804 804 804 804 804 807 808 807 807 809 807 808 815 817 822 821 812 803 796 796 794 795 799 797 794 793 795 798 795 792 796 798 795 795 791 785 783 778 773 769 770 771 771
817 817 817 816 816 816 816 816 815 815 815 815 814 814 814 813 813 812 812 812 812 812 811 811 811 810 810 809 808 808 805 803 803 800 797 798 799 800 800 800 800 801 802 803 804 804 803 803 803 804 807 809 807 807 811 809 810 812 815 822 816 804 799 794 792 792 793 794 796 796 794 796 796 793 792 796 798 796 797 793 788 786 779 773 769 767 769 769
817 817 816 816 816 816 815 815 815 814 814 814 814 814 813 813 813 812 812 812 811 811 811 810 810 810 810 809 808 808 804 805 804 799 797 798 799 800 800 800 800 801 802 802 803 803 803 803 803 804 808 811 807 806 810 810 809 809 812 818 809 800 801 796 792 791 791 792 796 797 797 798 794 791 792 795 799 798 794 789 785 783 778 774 770 767 767 767
817 816 816 816 816 815 815 815 814 814 814 814 813 813 813 813 812 812 812 811 811 810 810 810 809 809 809 808 809 806 806 811 805 797 798 798 799 800 800 800 800 801 802 803 803 803 803 803 803 805 809 812 809 807 808 804 805 808 808 807 802 801 803 797 791 792 792 793 796 798 800 798 792 791 792 794 799 796 789 783 779 776 774 773 770 768 766 765
817 816 816 816 815 815 815 815 814 814 814 813 813 813 812 812 812 811 811 810 810 810 809 809 809 809 809 808 808 806 810 814 801 796 799 798 799 799 799 800 800 801 801 802 803 803 804 803 805 809 810 811 810 809 806 799 800 809 807 801 800 800 800 796 791 793 793 795 798 798 797 794 794 795 791 791 792 786 781 778 775 772 769 769 768 767 766 765
816 816 816 815 815 815 814 814 814 814 814 813 813 812 812 812 811 811 810 810 809 809 809 808 808 808 808 808 808 807 810 807 796 797 799 797 799 798 799 800 800 801 801 802 803 803 804 804 807 808 809 810 809 805 802 797 797 805 807 802 800 798 797 794 791 792 793 796 796 795 795 795 798 796 789 789 785 778 776 773 771 768 765 765 765 764 764 762
816 816 815 815 815 815 814 814 814 814 813 813 813 812 812 811 811 810 809 809 808 808 808 808 808 808 808 808 808 808 808 801 795 797 797 797 798 798 799 799 799 801 801 802 802 802 803 805 806 806 809 809 805 803 800 800 801 802 804 801 798 797 794 792 791 792 793 794 793 793 796 796 795 792 789 787 781 774 772 770 768 766 764 764 763 761 761 760
815 815 815 815 815 814 814 814 814 814 813 813 812 811 811 810 810 809 809 808 808 808 807 807 808 807 809 807 808 811 805 796 795 796 796 797 797 797 798 798 799 800 800 802 800 801 803 805 805 804 808 806 802 803 801 805 807 801 801 800 798 798 795 794 793 792 792 791 790 794 796 793 790 790 788 781 776 771 768 768 766 765 764 763 761 759 758 758
815 815 814 814 814 814 814 814 813 813 813 812 811 811 810 809 809 808 808 807 807 807 806 807 807 807 809 807 810 812 800 794 795 795 795 796 796 797 798 798 799 799 800 801 800 800 801 802 801 800 805 805 803 804 802 805 804 798 800 800 798 799 796 795 794 791 790 789 789 793 795 790 786 791 789 777 770 768 767 767 764 764 763 760 759 757 756 756
815 814 814 814 814 814 814 814 813 813 812 811 811 810 809 809 808 807 806 806 805 805 805 805 806 807 807 807 810 807 796 794 795 794 796 796 796 797 798 799 799 800 801 800 800 800 800 800 799 801 806 805 804 803 801 801 799 799 802 802 800 799 796 793 792 788 788 788 785 788 793 789 787 791 787 774 768 767 768 767 764 762 761 758 757 755 754 754
814 814 814 814 814 814 813 813 813 812 812 811 810 809 809 808 807 806 805 805 804 804 804 804 806 806 807 808 806 800 795 795 795 794 796 795 797 798 798 799 799 800 801 800 800 799 800 800 800 805 806 804 806 806 804 800 800 801 804 808 804 798 797 790 786 784 784 786 781 786 799 796 790 787 779 770 767 766 767 767 764 761 758 756 755 754 754 753
814 814 814 814 814 813 813 813 812 812 811 811 810 809 808 807 806 805 804 804 803 803 803 803 804 805 808 806 798 794 794 794 794 794 795 795 797 797 797 799 799 800 800 800 801 800 801 801 802 805 803 805 808 805 804 801 802 805 804 809 808 804 799 785 779 779 780 785 780 788 807 802 787 779 772 767 765 766 768 766 763 760 758 755 754 755 754 753
814 814 814 814 813 813 813 813 812 812 811 810 809 808 807 806 805 804 803 803 802 802 802 803 804 805 808 802 792 793 794 793 795 794 795 796 796 797 797 798 799 799 800 800 801 801 801 801 803 805 803 805 805 802 804 804 804 805 805 807 808 813 805 782 776 779 782 787 780 788 809 802 786 777 770 766 765 767 769 766 762 759 756 754 754 755 754 751
813 813 813 813 813 813 813 812 812 811 811 810 808 808 806 805 804 803 803 802 801 801 801 802 803 805 807 799 791 793 793 793 795 794 795 796 796 797 797 798 799 799 800 801 801 801 802 803 805 807 806 802 803 808 812 810 805 803 810 813 807 811 805 783 776 779 783 788 783 791 806 800 786 777 770 767 767 768 769 766 760 757 755 754 754 754 753 751
813 813 813 813 813 813 812 812 812 811 810 809 808 807 805 804 803 803 802 801 801 801 801 803 803 805 806 798 792 793 793 794 794 794 795 796 797 797 798 799 799 800 801 801 801 802 802 804 805 807 807 805 807 813 816 817 811 803 809 815 807 805 802 788 779 775 779 786 786 790 798 794 784 777 771 767 767 767 767 762 757 755 754 754 755 753 752 754
813 813 812 812 812 812 812 811 811 810 809 808 807 806 804 803 803 802 802 801 802 801 802 803 802 804 802 794 793 793 792 793 794 794 795 796 797 797 798 799 800 801 801 801 802 802 803 805 806 807 807 809 809 811 821 827 820 807 804 806 802 797 798 794 786 776 777 784 787 788 792 791 783 776 772 766 764 764 764 760 755 754 754 753 753 753 755 760
813 812 812 812 812 811 811 811 810 810 809 808 806 805 804 803 802 803 802 802 802 802 804 803 804 809 803 793 792 792 791 793 793 794 795 795 797 797 798 799 799 801 802 804 804 803 806 805 806 810 810 811 810 813 824 824 815 809 806 805 802 796 796 797 791 781 778 782 785 787 789 787 779 774 772 766 762 762 760 757 754 753 753 753 754 756 761 765
812 812 812 812 811 811 811 810 810 809 808 807 805 804 802 802 802 802 802 803 803 802 803 802 802 804 799 790 789 790 790 791 792 794 794 795 796 797 798 798 799 801 804 807 806 804 806 808 811 817 816 811 808 808 812 809 803 803 802 802 804 801 799 795 789 780 778 783 785 785 787 784 779 776 772 765 760 760 758 754 753 752 752 754 757 762 766 769
812 812 812 812 812 811 811 810 810 809 808 806 805 803 802 803 803 803 803 802 801 797 796 796 794 793 790 787 788 790 791 791 792 793 793 794 795 797 798 798 800 803 805 806 807 803 804 814 818 817 813 805 798 796 795 794 794 796 797 799 800 802 800 792 786 779 776 784 786 782 784 783 780 776 769 763 760 759 757 754 754 753 755 759 762 766 769 773
811 812 811 812 811 811 811 810 809 809 808 806 805 803 804 807 807 807 805 800 794 792 791 790 789 788 786 786 788 789 790 791 791 792 793 794 794 798 798 798 804 808 804 801 805 803 805 816 816 807 802 795 791 790 788 789 791 794 798 801 802 803 800 790 785 780 777 787 789 782 785 785 780 774 765 761 761 759 756 758 760 759 762 764 766 770 773 777
810 810 811 811 811 811 811 810 809 809 808 807 806 804 805 807 808 808 808 804 794 789 789 786 785 786 783 784 786 786 789 791 792 793 793 793 795 798 797 798 804 805 798 798 807 810 814 817 807 797 793 790 790 788 788 790 793 798 800 804 808 803 798 792 784 779 780 789 790 785 788 788 780 770 762 760 760 759 759 762 766 767 768 771 772 775 777 780
809 809 810 810 810 811 810 810 810 808 808 808 806 806 806 807 807 806 808 809 798 786 784 784 784 783 782 784 785 786 790 791 792 792 791 793 795 796 796 798 800 798 796 800 806 812 816 809 796 789 789 791 792 789 789 792 794 799 802 807 809 801 801 800 789 782 784 787 788 787 789 789 780 768 761 756 755 760 764 766 769 772 774 777 779 780 782 784
807 808 808 808 809 810 809 810 809 808 809 808 808 808 807 807 807 808 808 806 798 785 781 781 780 782 783 785 785 786 790 788 788 790 790 792 793 794 795 795 797 798 797 797 799 803 804 793 784 786 788 790 794 792 792 797 800 800 799 803 804 797 798 799 792 788 788 787 785 787 793 791 778 770 763 754 755 764 767 769 775 776 778 782 784 786 788 789
805 806 807 807 808 809 810 810 808 808 808 807 809 808 807 808 806 808 808 805 798 787 781 781 781 783 783 784 786 785 786 786 787 789 790 790 791 793 793 790 794 800 796 792 795 798 795 787 783 787 789 790 795 796 794 798 805 803 797 795 795 794 795 795 794 796 801 800 790 790 805 799 775 770 767 756 760 771 771 774 779 781 783 786 789 792 794 794
804 805 805 806 807 808 809 809 807 808 807 808 808 807 808 808 806 808 808 809 802 787 782 784 783 784 784 785 786 785 788 791 790 790 790 791 791 791 794 790 791 797 793 790 793 792 789 786 786 790 792 792 797 800 794 796 806 806 798 793 792 792 795 797 798 802 808 806 792 789 807 806 784 775 766 756 766 776 776 779 782 784 788 789 793 797 798 798
802 803 803 804 805 807 808 807 807 807 807 808 807 807 808 806 808 807 808 816 804 781 781 786 784 784 784 784 784 787 794 794 791 791 790 792 791 790 796 794 791 794 789 792 801 794 786 789 793 794 795 797 802 801 793 793 804 805 797 795 795 794 798 799 801 806 805 801 795 789 797 806 797 780 759 753 770 779 779 784 785 787 792 792 794 800 802 802
800 801 801 803 803 805 806 806 807 806 806 807 806 808 807 806 808 805 814 826 802 774 779 785 784 785 783 784 785 786 791 790 792 795 791 792 793 792 797 795 793 794 788 796 808 795 786 793 797 797 800 802 801 797 790 789 798 801 796 796 795 796 800 799 801 805 801 803 805 793 791 805 799 774 753 750 770 783 783 785 787 789 794 795 796 800 804 805
798 799 799 801 802 803 804 805 806 805 806 806 806 808 806 808 807 806 822 825 792 772 780 783 784 786 784 786 787 785 787 787 791 794 791 792 793 794 798 796 793 794 789 794 802 794 790 796 795 795 800 800 795 794 792 790 794 798 797 796 796 797 798 799 803 805 804 811 811 794 790 803 795 769 755 756 768 781 783 784 788 790 793 796 798 800 804 807
796 797 798 800 801 801 803 804 804 805 806 806 806 807 806 808 809 816 827 815 788 779 782 782 785 785 785 788 788 786 786 787 788 792 792 791 792 793 794 794 794 796 795 795 796 792 792 795 794 793 794 792 792 797 799 796 796 798 798 798 799 798 797 801 802 803 812 814 803 789 784 795 796 773 757 758 762 769 778 784 789 792 793 796 799 801 804 807
795 796 797 798 799 800 802 803 803 803 805 805 806 806 808 810 813 821 818 797 786 786 781 783 785 783 785 787 788 788 787 787 788 791 793 793 795 797 796 797 798 800 803 802 799 795 794 797 794 790 788 788 791 797 801 801 799 799 800 802 805 801 800 806 806 808 820 811 791 781 776 786 797 777 755 757 759 761 771 780 787 793 797 799 801 804 806 807
794 795 796 796 797 798 800 801 801 802 803 805 806 807 810 816 815 813 804 790 788 787 781 784 784 781 784 784 786 789 788 789 789 789 792 793 796 797 797 797 796 800 806 801 798 796 795 795 791 789 789 789 793 798 803 803 802 802 803 807 813 810 806 811 812 811 813 804 787 780 779 786 789 770 755 761 768 767 768 775 785 793 798 802 805 806 806 808
793 794 795 795 796 797 799 799 800 802 802 804 807 807 812 817 809 799 794 788 786 783 779 783 783 782 784 785 787 788 789 791 791 791 790 790 793 792 790 788 786 793 799 796 796 798 794 792 790 792 792 788 792 798 802 802 803 806 803 805 812 813 815 817 810 805 802 795 788 783 786 792 783 767 764 773 779 778 776 782 790 794 799 804 806 807 808 811
792 793 794 794 795 796 797 799 800 800 802 804 807 810 813 812 801 793 791 784 779 780 781 783 786 786 786 787 787 786 788 793 792 793 793 792 796 795 788 784 782 785 792 796 798 798 800 799 792 791 790 788 790 790 791 792 799 801 793 793 801 803 811 815 807 804 802 795 791 789 791 789 779 774 777 782 786 786 788 792 796 799 802 804 806 809 812 815
791 792 793 793 794 795 795 798 799 800 803 803 807 811 810 804 796 793 791 781 777 781 784 785 786 790 789 787 787 784 786 791 791 793 795 794 794 791 785 782 782 784 791 799 797 794 801 799 788 787 788 787 790 785 783 788 794 795 787 790 798 795 796 802 800 798 801 802 798 793 787 775 770 778 783 785 789 792 795 798 799 803 805 806 810 812 816 818
790 791 792 792 793 794 795 797 798 800 802 803 807 807 802 795 789 786 783 778 777 780 786 789 788 791 792 787 787 786 784 788 792 793 793 791 789 785 782 779 779 781 786 793 793 792 799 795 785 788 789 787 790 787 784 789 793 794 794 795 796 791 790 798 801 794 797 809 800 787 785 774 769 780 786 787 792 795 799 801 803 807 808 810 813 815 817 817
789 790 791 791 792 792 794 796 798 800 801 802 804 798 792 788 782 780 779 778 779 779 784 791 790 789 791 787 785 786 787 788 790 792 792 790 787 782 781 779 778 780 780 784 789 789 795 796 786 784 788 788 791 790 787 788 791 793 797 795 791 792 792 796 806 804 804 811 798 783 787 785 779 783 786 788 793 798 801 804 806 809 811 813 815 816 816 814
788 789 789 788 790 791 793 795 797 799 800 800 798 791 787 785 778 777 779 779 780 781 784 790 788 785 787 785 782 784 789 789 789 792 792 789 786 779 777 781 783 782 778 781 789 787 791 798 790 783 787 790 790 791 791 791 791 792 794 793 793 800 801 797 804 811 810 810 800 787 786 784 779 779 780 785 793 798 802 804 806 809 812 814 814 814 813 812
787 789 788 785 786 789 792 794 796 800 801 797 796 792 787 784 779 778 780 781 782 785 788 788 786 786 785 785 784 785 787 787 787 791 791 788 785 777 773 780 786 786 781 782 789 788 790 800 799 788 787 790 790 793 796 794 793 794 796 795 793 799 803 800 800 803 804 807 802 795 790 782 776 776 778 783 789 794 798 801 805 807 809 811 811 812 812 813
787 789 787 783 785 787 790 793 796 800 798 793 792 791 787 785 782 779 780 783 784 787 790 788 787 790 788 786 787 786 786 786 786 789 788 784 783 781 780 782 786 788 785 783 787 789 790 799 802 794 789 793 794 792 792 793 794 797 801 800 797 797 800 801 800 796 798 805 804 802 799 785 778 782 782 783 787 790 795 800 804 807 808 809 810 812 813 813
786 788 785 782 785 787 790 795 796 795 794 790 789 789 787 784 783 782 782 784 786 788 789 789 789 790 790 790 790 788 788 788 788 789 789 785 784 787 790 789 787 788 789 788 790 792 795 799 804 802 797 797 794 786 785 790 791 795 801 801 798 798 801 808 808 795 793 800 800 802 801 787 783 787 784 785 790 791 796 801 804 806 807 809 810 811 813 813
786 786 783 782 785 786 788 792 790 789 789 786 783 784 783 782 782 783 783 784 786 787 788 790 790 789 790 790 788 787 787 788 788 789 789 786 783 786 790 791 789 789 791 794 795 795 798 804 809 808 802 798 792 784 784 787 785 788 795 795 794 797 801 810 812 801 797 798 793 797 801 790 788 792 787 788 792 793 797 801 802 805 806 808 810 810 812 813
784 783 783 784 785 785 787 789 787 787 785 779 777 779 778 779 780 780 780 783 786 785 787 788 787 786 786 785 785 785 786 787 787 786 787 786 785 787 789 788 788 789 791 796 798 798 802 807 812 810 801 794 788 784 786 788 788 790 793 793 797 800 801 807 809 808 812 808 798 803 804 790 789 794 791 791 793 794 798 799 801 805 805 806 808 808 810 811
779 780 783 785 785 785 785 782 782 784 782 778 778 777 775 775 776 776 777 779 780 781 783 783 782 782 781 780 782 783 785 789 788 786 786 787 788 791 790 787 789 791 794 797 797 801 807 808 811 814 811 804 798 792 793 795 797 802 803 801 802 802 803 808 808 811 816 807 799 808 805 789 789 796 794 794 796 796 797 798 799 801 803 805 806 806 808 810
776 779 783 784 784 784 780 775 775 777 777 778 778 776 775 773 771 771 773 774 774 776 779 780 778 778 778 778 781 782 783 787 789 787 786 787 790 794 793 790 791 794 798 800 796 800 807 805 807 815 819 817 810 802 800 802 804 806 805 802 801 800 801 805 808 813 813 803 800 809 803 789 789 792 791 792 796 797 797 797 797 798 801 804 805 807 808 809
774 777 782 785 785 783 779 776 777 776 773 775 777 773 773 773 769 768 770 771 772 772 775 777 776 779 781 781 784 786 785 786 788 788 787 787 791 795 795 793 795 799 802 801 798 801 807 806 805 810 813 811 808 802 799 803 807 808 805 802 801 801 800 804 810 813 811 808 808 805 796 793 792 788 785 788 793 796 795 795 797 798 800 803 804 807 808 809
774 771 773 778 781 781 779 777 778 777 772 771 772 768 768 770 769 769 770 770 770 771 773 776 777 782 785 784 785 787 785 785 786 787 787 787 788 795 798 796 799 803 803 801 801 803 809 811 806 807 809 806 805 803 801 803 807 807 806 804 802 800 801 804 809 807 806 813 813 798 792 798 795 788 787 788 790 792 790 790 796 798 801 804 805 807 809 809
773 769 764 767 771 773 773 772 773 775 773 770 768 764 764 767 767 768 771 771 770 771 774 777 777 778 781 781 784 786 783 784 785 784 786 787 789 796 799 799 801 804 803 803 802 802 810 813 806 806 810 806 804 805 803 804 806 805 806 805 803 801 800 802 805 803 804 811 808 796 795 798 795 790 789 788 788 788 788 791 796 799 802 805 806 808 809 809
770 770 766 765 766 766 765 765 768 773 774 772 770 766 765 765 764 764 767 771 774 773 774 778 776 775 777 778 781 784 783 785 787 788 792 796 796 798 801 802 804 804 804 806 804 803 811 814 808 808 811 808 806 806 805 807 808 807 807 806 802 800 798 800 802 800 800 803 800 797 798 797 792 789 788 789 790 791 793 797 798 801 803 804 805 806 806 806
771 771 769 767 767 767 766 764 767 772 772 772 772 768 765 766 764 763 764 770 776 775 773 776 777 778 782 780 780 785 785 787 791 792 798 802 800 800 803 803 804 805 806 808 807 806 811 813 809 811 816 813 808 808 809 809 809 809 808 805 801 801 801 802 802 800 801 802 797 797 800 796 789 787 789 793 795 795 797 799 799 800 802 802 804 804 803 804
772 772 772 771 768 766 769 767 765 769 771 770 769 766 766 767 764 763 767 770 773 773 771 774 778 783 787 783 783 787 788 791 794 795 799 802 800 801 804 803 804 807 809 810 810 808 811 813 810 814 823 819 809 810 812 809 810 814 809 802 800 802 803 801 799 799 799 799 798 800 801 795 789 791 794 795 795 797 798 799 800 801 801 801 802 802 802 803
771 772 772 773 769 763 766 767 766 768 766 763 763 763 763 765 762 763 770 774 775 775 773 774 778 784 787 786 789 792 792 793 797 798 799 801 801 802 804 805 806 808 809 810 812 811 811 815 815 817 825 821 810 811 815 815 820 818 803 795 797 799 799 797 796 795 794 795 799 799 796 791 791 793 796 796 797 799 800 800 801 802 801 801 801 801 802 802
Wind_Speed
3 3 3 3 3 3 3 4 4 4 4 5 5 5 6 6 6 7 7 7 7 7 8 9 10 10 11 12 13 15 17 18 16 10 8 10 9 5 6 4 2 5 7 5 6 5 4 6 6 5 3 2 2 1 3 1 1 1 1 3 4 4 4 3 4 3 3 5 4 2 2 3 4 2 1 2 3 6 9 10 9 8 10 13 19 19 10 10
4 3 4 4 3 3 4 4 5 5 5 5 6 6 6 6 7 7 8 8 8 8 8 9 10 10 11 12 13 14 17 18 16 12 12 13 11 7 6 4 2 4 7 7 7 7 5 4 6 6 3 1 2 2 2 2 2 2 2 3 4 4 4 5 6 5 4 5 6 6 6 6 6 5 2 1 6 5 8 10 9 10 10 13 18 21 16 13
4 4 4 4 3 4 4 4 5 5 5 5 6 6 6 7 8 8 9 9 9 9 9 10 10 11 11 11 12 13 16 15 10 7 4 5 7 5 4 2 2 3 6 6 6 8 6 5 2 5 3 2 3 3 2 2 3 3 3 3 5 5 6 6 7 5 4 5 6 6 5 6 6 6 3 5 8 6 8 9 8 10 9 8 8 12 14 15
5 5 5 5 4 5 5 5 5 5 5 5 6 6 6 7 8 9 9 10 10 10 10 10 10 10 10 10 10 11 12 8 3 1 5 5 5 3 1 1 1 3 7 4 3 8 7 7 4 3 3 3 4 3 3 2 2 3 4 4 5 5 6 7 9 7 5 4 4 5 6 7 7 5 5 5 7 6 8 9 9 11 10 10 9 9 9 9
6 6 6 5 5 5 5 5 5 5 5 6 6 6 7 8 9 9 10 11 11 11 11 10 10 10 9 8 7 8 8 3 0 3 6 6 5 3 2 1 0 6 9 3 4 6 5 6 5 3 2 3 4 3 4 5 4 2 4 6 6 6 7 8 9 5 4 4 3 5 6 7 6 6 6 5 7 7 6 8 11 13 11 11 10 10 11 9
6 6 6 6 6 5 5 5 5 5 6 7 7 7 8 9 9 10 11 11 12 12 11 11 10 9 7 6 5 4 3 2 0 5 8 4 3 1 2 1 2 8 9 3 5 5 4 5 4 3 3 3 5 5 5 6 6 4 5 6 7 7 8 9 8 2 3 3 6 6 6 7 8 9 7 7 11 10 8 10 13 14 14 14 12 9 10 10
6 5 6 6 5 5 6 5 5 6 6 7 7 8 9 10 10 11 12 12 13 13 12 11 10 8 7 4 2 1 2 5 5 6 9 5 4 2 2 2 4 10 9 6 7 6 4 5 5 4 4 4 6 7 6 5 4 5 5 6 8 10 11 10 8 4 2 6 7 6 6 8 10 10 8 9 13 12 10 11 13 14 15 14 12 10 10 10
5 5 6 4 4 5 5 5 5 6 6 6 7 8 9 10 11 12 13 13 14 14 14 12 10 8 5 2 2 3 3 6 7 6 7 7 6 5 4 4 7 10 8 9 9 6 4 5 6 4 5 5 6 6 5 5 4 6 6 6 7 8 9 8 7 6 6 8 7 5 7 10 11 10 10 12 15 15 13 12 13 14 14 12 11 11 10 9
5 5 5 3 3 3 3 4 4 5 6 6 7 8 10 11 11 12 13 14 14 14 13 12 10 7 3 0 2 4 4 6 8 7 5 7 6 6 6 5 9 12 8 10 10 8 4 4 5 2 4 5 5 7 5 5 4 4 5 5 6 6 8 9 9 9 9 7 5 5 9 11 9 8 10 12 14 14 12 11 11 11 12 10 10 10 9 9
5 5 4 3 2 2 3 3 4 5 6 7 8 9 10 11 12 13 13 14 14 14 13 11 8 5 3 1 3 4 3 4 6 5 5 5 4 5 7 5 8 11 8 9 10 9 5 5 4 3 3 4 5 6 5 6 3 3 5 7 8 9 9 10 12 13 11 9 9 8 10 12 8 5 7 9 11 10 9 9 8 8 10 10 10 9 9 9
5 3 2 2 2 2 3 4 5 6 7 8 9 10 11 12 12 13 14 14 14 14 12 10 6 4 3 3 5 5 3 3 3 2 3 2 2 6 8 5 7 11 9 9 10 8 7 6 4 3 1 2 3 6 5 4 4 5 6 8 11 11 11 12 14 14 10 7 9 8 8 11 7 5 11 14 12 10 8 9 9 9 9 9 10 10 8 7
3 2 1 2 2 3 4 5 7 8 9 10 11 12 13 13 13 14 14 13 13 13 11 8 5 5 3 3 7 8 6 4 4 3 2 2 3 7 9 8 7 9 8 7 5 4 4 5 6 1 3 2 4 6 3 4 5 4 4 7 12 12 11 14 14 13 10 5 5 4 2 8 8 8 13 14 11 9 8 9 9 9 9 9 9 8 7 7
1 0 1 1 2 3 4 5 7 9 11 11 12 13 14 14 14 14 13 13 12 11 9 6 4 6 2 3 8 14 14 10 8 6 5 4 5 8 10 10 9 9 7 3 3 3 2 3 3 4 5 4 5 2 1 2 2 3 4 5 9 9 7 11 10 8 7 4 8 7 0 5 7 9 9 7 4 5 6 8 9 10 10 10 9 7 7 7
1 0 1 1 1 3 4 6 8 10 11 13 13 13 15 15 14 12 12 12 10 9 6 3 7 7 2 4 4 10 14 12 8 5 4 3 4 6 8 8 8 8 7 3 2 3 3 3 3 4 5 5 4 3 3 4 2 5 6 4 5 4 5 8 4 5 4 2 6 6 2 5 7 10 8 5 6 8 9 9 12 11 10 10 7 6 7 6
1 1 1 2 2 3 5 6 8 10 12 14 14 14 15 14 12 11 10 9 8 5 1 5 9 6 2 5 3 4 8 6 4 4 3 5 4 3 5 5 5 5 5 3 3 2 2 2 1 2 4 3 3 4 5 4 3 5 5 4 4 4 5 8 3 7 5 2 4 6 2 6 7 7 8 8 8 9 11 12 14 13 12 10 6 6 6 4
1 2 2 3 4 5 6 7 9 11 13 14 14 15 15 12 9 9 8 6 4 2 6 5 8 5 4 2 3 2 3 2 5 7 5 6 5 2 6 5 2 3 2 2 2 1 1 2 1 1 2 1 2 3 3 3 4 4 5 5 5 5 5 5 1 5 7 2 2 5 3 5 5 5 9 11 10 9 11 14 15 14 11 8 6 6 4 6
3 4 3 3 5 6 7 8 10 11 13 14 15 15 14 10 7 6 5 2 3 6 5 1 5 6 3 1 2 1 3 3 6 6 4 7 6 5 7 4 3 4 3 2 2 3 3 2 1 1 2 3 2 3 3 4 4 3 4 4 5 5 4 4 2 1 6 5 4 7 6 7 7 7 9 11 11 10 11 14 14 11 8 6 5 4 6 11
4 6 5 5 6 7 8 9 10 11 12 13 14 15 13 8 5 3 3 3 5 4 1 2 2 3 2 2 2 2 5 5 6 4 4 8 8 7 6 3 5 6 5 3 2 3 3 2 2 1 2 4 3 3 4 5 5 5 5 5 5 6 5 5 6 3 1 4 5 6 8 7 7 7 8 10 12 13 13 13 12 9 7 6 4 7 11 13
5 6 6 7 7 7 8 9 10 11 12 12 12 14 11 5 4 2 1 1 1 0 2 1 5 2 3 1 3 5 6 7 6 4 6 9 8 7 5 3 5 5 4 2 3 5 3 2 2 1 3 5 6 7 8 9 9 9 8 6 7 7 5 7 9 7 7 8 6 6 7 7 7 8 9 12 13 13 14 13 11 8 5 3 7 10 11 12
5 6 6 7 7 8 8 9 10 12 12 12 13 12 6 2 2 1 2 4 5 7 6 4 7 6 7 1 6 5 5 7 4 4 8 9 8 8 4 4 4 2 3 3 4 4 3 3 3 4 6 9 9 10 11 10 10 10 9 7 7 7 6 7 9 9 5 4 4 5 6 7 8 9 12 14 12 11 13 12 10 4 4 7 11 11 12 12
6 7 7 8 8 8 8 10 11 12 10 9 11 8 2 2 2 1 1 5 10 13 11 10 11 10 11 3 7 6 2 3 3 5 9 10 8 7 5 5 4 2 6 5 3 2 2 3 5 7 11 13 11 10 10 9 8 9 7 6 6 5 7 8 10 10 3 1 3 5 6 7 9 13 15 12 10 11 9 5 5 8 10 9 11 12 11 10
7 8 9 10 9 8 8 9 11 12 8 6 8 4 3 3 1 1 2 4 7 11 12 13 13 12 13 6 6 5 1 3 4 5 9 9 6 4 5 6 5 4 5 4 4 1 2 5 9 12 12 11 11 10 10 9 7 7 6 5 5 5 7 8 8 6 1 2 3 5 6 6 10 16 16 11 8 5 4 9 9 10 11 10 10 10 10 10
9 10 11 10 9 8 7 8 11 10 6 4 5 3 2 1 0 1 1 3 6 10 10 10 11 10 9 3 5 3 2 5 5 4 10 10 4 2 4 5 6 4 4 6 5 4 4 5 10 12 11 10 10 9 8 8 5 4 4 4 5 5 5 5 3 2 3 3 6 7 6 5 10 14 13 11 6 5 11 13 11 10 11 11 10 10 10 10
11 12 13 10 8 7 6 8 10 6 3 3 3 2 1 1 1 1 2 3 5 6 3 2 3 3 3 2 4 2 4 5 3 4 11 9 4 2 3 5 5 5 5 8 8 8 7 7 6 7 8 8 7 7 7 5 4 4 5 5 7 7 6 5 4 5 6 6 5 5 5 4 7 8 8 7 2 10 10 12 12 10 10 10 10 11 10 9
15 13 13 11 7 6 7 9 7 3 3 2 0 1 2 1 1 2 1 3 4 2 1 2 2 1 1 2 3 1 3 2 1 3 7 4 1 3 3 4 4 5 7 9 10 8 8 6 3 4 6 4 4 6 6 4 3 5 5 5 6 5 4 4 6 5 4 5 2 2 2 3 4 5 8 8 3 9 8 10 10 8 10 9 9 9 8 8
16 14 14 12 7 5 6 6 2 3 3 2 2 3 3 2 1 1 0 2 4 1 1 1 1 2 3 2 2 1 2 1 2 2 3 0 2 1 1 2 2 4 4 4 5 3 3 1 3 1 4 3 3 6 7 4 3 4 3 2 3 2 3 3 4 2 1 3 3 1 1 4 4 5 11 8 7 10 8 9 8 8 8 8 8 7 6 7
17 16 15 13 9 7 4 2 1 3 2 2 3 3 3 2 1 2 1 3 4 2 3 0 0 2 3 2 2 2 1 2 2 1 1 1 1 0 1 2 2 2 1 1 1 1 3 3 4 2 3 3 4 5 5 5 4 3 1 3 4 3 2 2 1 2 3 4 5 5 4 5 4 6 11 6 10 10 7 8 7 7 8 8 9 8 7 7
19 18 16 14 12 12 9 4 3 3 2 4 2 2 3 2 2 1 1 3 3 2 2 0 2 1 1 2 1 1 2 3 2 1 2 1 0 1 2 4 3 3 2 3 2 1 1 3 2 3 4 3 4 2 2 4 4 2 1 2 3 2 1 2 3 4 4 3 4 5 5 3 4 5 8 6 10 8 7 8 7 8 8 8 9 8 7 7
20 19 17 16 14 13 12 9 6 3 2 3 0 3 3 2 1 1 1 3 2 1 1 1 3 2 2 3 2 2 2 2 1 1 1 1 1 0 1 2 5 5 1 4 5 3 1 1 1 3 4 3 2 1 4 1 2 2 1 1 1 2 4 4 4 3 2 3 4 5 6 3 4 6 5 4 7 6 7 7 7 8 8 8 8 8 7 6
20 18 17 16 13 10 9 9 11 9 5 2 2 3 2 1 0 1 3 3 0 1 1 1 1 3 4 4 3 4 3 1 2 3 2 1 2 1 1 1 1 4 2 3 6 5 0 2 1 2 3 2 3 2 3 3 1 0 1 2 3 5 4 3 3 1 1 3 6 8 10 7 3 5 2 2 5 9 9 7 7 8 8 8 8 7 7 5
15 14 14 14 12 9 6 6 11 14 10 7 4 1 0 0 1 4 5 2 0 1 2 2 1 3 5 3 2 3 3 3 4 4 3 2 3 2 2 1 1 1 2 3 5 5 2 1 1 1 2 2 4 2 3 3 2 2 2 2 4 4 1 1 0 2 1 4 5 5 7 11 4 4 2 5 5 10 10 9 10 9 8 8 7 7 6 6
12 11 11 13 13 11 8 3 5 10 12 10 4 2 1 2 3 4 2 1 1 2 2 2 1 3 3 1 2 2 1 3 3 2 1 2 3 4 4 3 2 1 2 2 2 2 2 4 4 1 2 1 3 1 2 3 3 3 1 1 2 3 1 0 0 2 3 4 3 5 3 4 5 5 4 5 7 5 7 9 11 11 10 8 7 6 6 6
11 11 12 15 14 11 10 6 2 6 11 9 4 1 2 4 4 3 4 3 1 1 2 3 1 1 2 2 2 1 1 1 2 1 0 1 1 3 6 7 5 2 2 0 3 2 2 1 4 3 2 2 5 3 1 2 1 4 3 3 3 1 2 3 2 2 3 3 2 4 6 1 3 4 3 6 8 7 10 11 10 10 10 9 7 6 7 6
11 11 11 14 15 12 10 8 3 6 12 10 4 2 4 5 3 1 4 5 1 2 2 3 2 1 0 1 2 2 1 1 2 2 0 2 2 3 5 7 7 3 1 1 2 1 1 3 3 4 1 4 7 4 1 1 3 6 4 4 4 3 3 4 3 3 4 3 3 2 2 1 2 1 3 8 8 9 11 10 10 10 8 8 7 7 6 5
10 11 10 11 14 13 11 9 6 8 12 8 3 3 5 4 1 2 3 4 2 3 2 2 2 2 2 2 2 2 1 2 3 2 2 3 3 3 3 4 6 4 3 1 1 1 1 3 2 2 1 5 5 3 2 3 1 3 1 2 2 3 3 3 3 4 3 4 4 2 2 3 0 4 6 8 9 10 10 9 9 9 8 7 7 6 5 4
9 9 8 9 11 13 13 11 8 10 10 4 3 5 5 3 1 1 1 1 1 3 3 1 1 3 3 2 4 3 1 2 3 2 3 3 3 4 3 1 4 6 4 3 2 1 2 3 2 2 1 3 2 2 2 2 0 1 2 1 3 2 2 2 4 4 3 4 6 4 4 4 1 3 6 8 9 9 8 8 9 7 7 7 6 5 3 3
7 5 5 6 9 11 13 11 10 11 7 3 5 6 4 3 4 2 1 1 1 1 3 3 2 2 3 3 4 5 3 1 3 2 1 2 2 2 4 1 2 4 4 2 1 2 2 3 3 3 2 2 1 2 2 0 2 2 1 2 2 1 2 1 3 3 4 6 5 5 7 6 4 2 3 7 8 8 7 8 8 7 7 6 4 4 3 4
5 2 3 8 13 13 12 12 12 9 4 3 7 7 3 3 3 1 1 1 1 1 1 3 2 1 3 3 2 4 4 1 3 3 1 2 1 2 4 1 3 2 1 3 1 1 0 2 4 1 1 2 1 1 1 2 2 3 3 1 1 0 1 2 2 2 5 6 4 5 8 7 5 3 2 6 7 8 8 7 7 7 6 5 5 5 4 4
6 2 2 7 15 16 14 14 12 5 2 5 7 6 2 1 2 1 2 2 2 1 1 3 1 1 2 2 1 3 4 3 3 2 2 2 2 2 2 1 2 3 4 4 2 1 2 1 2 2 2 2 2 1 1 2 2 2 1 2 1 2 2 2 2 2 4 6 5 5 6 5 3 2 2 5 8 9 8 7 6 6 6 5 4 4 4 4
5 1 1 4 13 18 17 14 8 3 4 6 5 3 1 0 3 1 3 3 1 0 1 2 1 2 3 2 2 1 2 2 2 2 2 1 2 1 4 4 2 1 3 3 1 1 1 2 2 1 1 1 1 2 3 1 2 2 1 2 1 1 1 2 2 2 3 5 5 5 6 4 1 3 4 6 7 7 7 7 6 5 5 5 4 4 3 3
3 1 1 6 14 20 17 10 5 4 5 6 5 3 1 1 2 1 3 4 2 1 1 1 2 4 4 4 4 3 2 2 3 3 3 3 4 1 2 3 2 2 2 2 1 1 0 2 1 1 2 1 3 3 1 2 4 1 3 2 3 2 1 2 4 4 3 3 4 5 7 4 1 3 3 6 5 6 7 7 6 5 5 5 4 4 4 4
2 1 3 10 19 22 15 6 5 4 4 7 6 4 4 3 2 3 3 3 3 3 3 2 5 6 5 6 6 5 4 3 4 4 3 4 4 2 2 1 2 3 2 2 1 2 2 2 1 2 4 6 9 8 5 5 5 4 4 3 3 3 3 3 5 4 2 4 4 5 6 3 1 2 3 6 5 6 7 7 6 5 5 6 5 5 5 5
2 2 4 12 21 20 10 4 5 5 5 6 5 6 6 4 4 5 6 5 4 4 4 4 6 7 7 7 7 6 6 4 4 5 3 3 2 1 2 2 2 3 2 1 0 2 3 2 1 3 4 6 9 7 3 5 3 2 2 1 0 2 2 3 3 2 1 3 4 4 6 3 2 2 2 5 5 6 6 6 7 6 5 6 6 6 6 5
2 2 3 10 21 18 8 5 6 7 7 6 6 8 7 6 6 7 7 7 6 5 5 5 6 7 7 6 6 6 6 4 4 4 3 3 1 4 4 3 3 2 1 1 1 1 0 1 2 1 3 4 6 5 2 5 4 1 2 2 1 3 3 2 1 1 2 5 6 5 5 2 1 2 1 4 5 5 5 6 6 6 5 5 5 5 5 4
3 2 2 7 16 14 5 2 3 5 8 9 9 10 9 6 6 8 8 7 6 5 5 4 4 4 4 4 3 3 4 3 3 2 1 1 1 3 4 5 5 3 2 3 2 1 1 1 2 1 3 5 5 4 1 2 2 1 2 4 3 4 5 4 2 3 4 4 4 4 5 3 2 4 4 4 5 4 4 5 5 5 6 6 5 5 5 5
3 3 1 4 7 8 5 2 2 3 6 8 8 9 11 9 5 5 7 7 7 8 5 2 1 0 2 4 3 3 4 4 3 2 1 1 2 2 3 5 7 4 3 4 4 2 0 1 3 4 6 7 7 6 4 3 3 4 6 7 7 7 6 4 3 6 5 3 4 8 9 8 7 9 8 2 4 5 5 5 6 5 5 5 5 4 4 3
2 2 4 4 4 5 5 5 5 4 3 5 5 6 10 11 6 4 5 5 5 6 5 4 3 3 3 4 4 5 6 6 6 6 5 4 3 3 3 5 6 3 3 2 1 2 2 2 5 6 7 8 8 9 9 8 6 7 7 9 10 9 7 7 8 7 4 3 7 10 10 10 10 10 10 7 3 5 6 5 5 5 4 5 5 4 3 2
2 1 2 2 3 6 7 7 9 9 7 6 4 3 7 10 9 6 4 3 1 1 3 5 7 9 8 7 5 5 5 6 6 4 4 3 3 4 3 4 4 3 3 2 1 2 3 3 5 4 6 8 9 9 9 7 7 7 8 10 11 12 12 12 10 8 5 6 9 10 12 13 11 10 12 11 9 8 5 1 3 5 5 5 5 4 4 5
1 1 2 2 1 4 5 6 9 12 12 8 5 5 7 8 8 5 3 4 2 2 3 5 6 7 6 6 6 4 4 4 2 0 1 2 2 3 2 2 2 2 2 2 1 1 2 3 3 2 5 8 8 8 7 6 7 9 11 12 13 15 16 12 11 10 9 10 11 12 14 14 12 12 11 7 4 2 3 4 5 5 5 6 5 5 5 6
0 1 1 1 0 0 1 3 7 9 10 9 7 7 6 6 8 4 2 3 4 4 6 7 5 2 2 1 4 3 2 4 4 2 3 3 1 2 1 0 1 1 1 2 1 1 0 1 1 1 3 6 8 7 5 5 8 10 12 13 15 15 14 12 12 11 10 11 13 13 14 14 11 8 4 1 4 4 4 4 4 4 5 4 2 3 4 4
1 2 2 1 1 2 1 1 6 7 7 8 8 7 6 7 9 4 1 1 2 2 4 6 4 3 3 3 4 2 2 6 6 4 5 4 2 1 1 0 2 3 1 1 0 1 1 1 1 1 2 7 9 7 6 6 7 9 14 17 17 14 12 11 10 9 10 12 13 12 12 10 5 1 2 3 4 4 3 3 3 2 3 3 1 4 4 3
1 2 3 2 1 3 4 2 4 6 6 7 7 7 6 6 7 5 3 1 4 3 2 5 7 4 3 3 3 3 5 7 6 4 4 4 2 2 2 1 2 3 3 2 2 1 2 2 1 1 3 7 9 5 2 1 4 9 12 14 14 13 13 13 11 11 13 12 10 10 8 5 3 3 3 2 2 3 2 2 1 1 1 1 4 5 5 4
Wind_Direction
306 308 310 309 301 290 290 290 292 294 292 292 296 299 300 300 301 304 307 309 312 316 320 320 321 325 328 330 330 330 326 323 322 303 262 270 285 305 302 295 269 210 193 156 149 180 177 199 206 183 193 151 201 206 131 179 179 217 197 216 241 241 255 342 327 326 3 331 330 280 311 327 313 315 104 27 295 255 272 270 269 259 242 240 244 251 233 203
300 298 306 308 307 303 299 302 303 300 298 299 299 301 299 300 301 301 305 307 309 312 315 316 317 320 325 328 329 330 323 321 315 286 265 268 263 268 296 294 254 194 184 172 175 204 209 210 191 178 212 182 173 149 146 177 159 217 230 233 243 247 275 322 308 320 353 318 316 314 327 335 326 327 354 287 278 273 280 279 283 279 262 249 241 239 222 201
303 302 301 296 299 297 297 300 301 300 297 300 298 298 299 298 298 298 302 304 305 309 310 312 313 318 324 326 330 330 324 321 309 288 271 251 234 242 295 290 248 200 180 178 195 228 257 298 224 179 223 245 195 151 161 167 150 212 216 243 246 260 286 300 299 311 318 311 313 309 341 336 310 310 299 277 280 270 269 274 280 279 274 281 271 247 228 208
302 301 299 294 290 288 293 298 298 301 302 303 300 298 299 298 300 302 301 302 304 306 308 310 313 319 325 330 334 334 328 317 300 39 102 125 157 143 24 311 258 179 169 175 248 249 267 301 281 213 243 261 239 184 183 179 155 203 192 233 259 291 303 301 304 314 326 349 342 317 332 309 290 285 273 278 280 257 253 260 268 277 285 302 319 310 281 245
304 301 303 303 300 294 296 299 302 307 311 314 312 310 311 308 310 309 308 308 309 310 312 314 316 322 329 335 337 338 336 317 153 136 139 130 141 127 48 19 241 173 171 188 270 250 254 268 258 244 244 260 267 233 216 200 177 244 234 243 263 286 288 285 296 324 20 2 320 297 298 291 291 284 270 263 261 251 252 263 271 280 290 294 298 305 300 288
309 313 317 317 319 316 311 314 320 326 325 325 324 324 321 317 315 312 311 310 311 312 313 315 318 326 335 342 342 348 336 272 224 180 184 180 178 169 17 351 224 180 174 217 244 228 238 244 232 236 237 242 260 254 251 221 185 219 251 254 266 272 274 282 293 336 64 320 289 282 287 297 295 284 273 258 257 256 255 263 270 273 274 277 278 281 280 275
312 330 330 332 338 335 334 338 341 340 334 332 332 328 324 320 317 314 312 310 311 310 311 314 316 322 332 344 342 340 250 260 277 214 203 226 239 260 297 267 218 185 180 224 228 217 222 231 228 233 250 250 254 252 264 265 219 222 251 270 277 277 277 281 293 311 315 285 276 278 290 286 278 279 280 267 266 267 264 264 269 272 273 274 271 264 263 260
317 334 330 336 343 340 343 344 341 337 333 331 329 325 322 318 315 313 311 309 309 307 308 310 310 319 330 338 303 282 233 248 262 224 215 247 257 256 252 231 207 187 191 221 220 225 228 236 245 248 259 253 265 277 299 317 274 250 260 270 269 271 282 289 293 287 276 271 266 270 276 268 265 275 279 272 271 270 267 265 264 268 271 268 266 261 259 254
315 326 319 323 341 345 352 346 341 338 332 329 324 322 320 315 314 312 309 307 304 302 302 302 303 309 315 337 300 281 249 242 241 231 245 265 259 244 229 217 202 186 200 227 228 242 237 236 253 274 299 278 286 298 305 299 267 260 283 300 298 295 301 301 292 278 269 265 250 247 261 262 265 278 275 262 262 264 261 257 252 259 266 263 265 264 263 261
307 316 313 335 359 8 11 2 353 347 337 332 328 325 321 318 317 313 310 306 302 299 296 293 290 276 251 219 248 257 253 246 235 232 261 271 251 216 197 202 205 193 210 232 229 241 241 256 284 44 359 309 299 293 280 268 283 356 327 315 307 296 289 280 274 270 265 263 250 242 259 265 267 280 275 259 256 263 268 266 254 251 258 258 263 264 264 265
303 317 333 1 10 19 20 14 5 357 349 342 336 331 327 323 320 316 312 308 304 302 296 290 273 242 224 215 230 241 237 233 219 215 260 260 194 190 184 189 209 204 221 238 231 246 265 294 357 49 321 348 316 287 278 297 353 8 341 316 294 284 279 268 263 261 254 249 234 225 261 279 279 249 252 261 264 267 273 275 268 257 254 255 261 268 270 266
305 332 51 32 9 15 15 11 7 1 354 347 341 336 331 327 323 318 314 310 307 302 296 290 247 196 200 240 234 235 236 231 224 232 255 217 186 192 190 191 198 209 235 260 251 268 301 346 26 314 268 346 318 289 290 343 2 354 337 303 285 280 272 263 258 252 244 222 160 140 296 283 272 243 244 253 256 260 265 271 272 267 269 270 273 280 285 282
327 28 89 66 15 12 8 6 5 360 355 349 342 338 333 330 325 320 316 312 309 302 298 283 202 169 190 264 233 230 235 236 242 261 262 242 215 204 207 203 192 204 230 282 351 10 350 357 0 282 286 299 294 303 267 304 340 288 265 258 280 291 274 263 256 233 228 187 121 110 218 258 269 270 266 265 268 285 286 283 278 274 278 278 280 287 288 290
350 12 85 55 16 12 7 5 1 358 354 350 344 339 334 331 325 322 320 314 309 302 292 218 166 148 190 265 242 225 226 234 248 264 254 214 182 195 215 214 202 209 221 242 328 347 345 357 354 294 287 268 268 326 311 275 255 263 260 238 258 279 274 271 249 147 151 189 133 124 224 248 272 284 294 326 345 326 305 289 280 274 273 275 281 286 281 288
356 358 4 350 351 0 1 3 360 355 353 350 344 338 334 329 325 326 324 319 317 303 231 161 162 151 276 262 237 207 213 227 208 182 191 163 163 192 191 196 209 214 221 231 248 302 345 37 80 282 275 241 238 294 301 279 253 254 262 257 233 222 263 279 244 153 162 249 161 136 205 246 253 290 315 322 315 303 291 280 276 274 273 283 301 301 293 325
17 355 346 340 345 349 351 360 359 351 353 350 342 337 333 327 326 332 332 326 330 117 124 142 170 175 304 261 164 171 195 199 176 185 199 173 175 161 141 146 169 177 195 223 229 236 146 150 140 318 275 251 199 233 268 280 263 237 230 247 244 230 251 275 262 170 164 125 197 190 218 255 252 289 296 288 279 270 269 269 269 273 277 287 297 298 330 30
346 335 334 346 345 346 350 359 357 350 353 352 341 335 331 324 323 341 358 25 102 116 106 80 176 186 271 250 170 174 146 153 179 198 209 179 170 141 139 141 136 144 135 123 148 164 155 163 148 100 225 247 249 239 263 267 254 246 238 247 258 259 269 290 333 156 147 140 212 218 221 243 247 256 268 278 284 274 265 268 272 280 289 287 292 329 41 56
318 314 322 344 343 346 354 358 355 349 350 350 339 330 326 314 296 338 27 75 104 109 40 339 199 198 234 205 197 140 127 148 166 167 176 173 164 154 164 161 139 148 146 142 168 170 168 170 169 236 239 230 237 229 231 237 244 268 274 277 285 287 301 299 298 314 260 224 232 232 239 253 266 273 278 279 279 275 270 271 277 284 291 299 357 52 63 63
309 313 321 336 338 342 352 356 354 351 348 349 343 330 325 300 266 266 206 203 123 219 319 194 193 247 318 188 142 113 119 142 147 141 161 164 161 164 190 184 155 168 165 156 193 181 168 139 156 236 242 227 222 213 221 232 245 263 271 278 287 289 288 282 281 285 288 278 265 259 265 280 289 288 283 271 267 272 274 275 277 275 282 356 59 71 69 65
299 310 318 328 331 337 346 350 351 351 346 348 347 329 318 313 282 225 197 226 233 256 288 248 214 260 300 294 124 124 135 153 152 149 162 159 155 162 187 194 164 200 223 173 173 171 158 171 186 199 222 237 237 232 239 242 250 264 270 272 278 285 281 277 281 284 298 300 276 278 285 289 292 284 274 271 274 274 271 276 287 310 46 66 74 76 71 68
286 296 304 309 317 330 340 344 345 346 345 347 342 326 341 26 320 346 312 253 238 246 262 258 246 262 279 262 143 148 134 189 190 153 167 163 158 166 178 187 163 203 230 190 128 90 135 197 215 213 225 241 249 259 269 273 282 287 285 285 285 283 278 279 282 286 318 58 274 294 293 292 298 285 275 275 278 275 280 312 5 48 63 67 72 71 67 65
278 286 288 293 302 317 329 338 338 338 343 340 328 328 71 35 303 164 301 280 262 257 258 258 255 257 266 256 156 154 82 230 199 146 170 169 168 190 172 177 189 205 212 165 109 104 186 223 230 226 232 246 257 268 275 275 282 290 293 298 289 273 279 284 276 276 71 116 286 306 297 297 290 279 279 279 271 286 36 64 64 67 70 64 64 64 60 57
273 277 280 286 296 310 317 325 327 331 343 341 334 0 68 353 303 127 232 275 279 259 246 247 246 244 248 215 125 144 218 235 231 173 175 172 167 215 177 182 214 228 201 169 174 204 196 223 231 227 234 247 257 265 270 270 260 255 264 276 273 268 275 277 276 337 16 309 289 294 290 288 278 275 279 270 253 78 74 77 70 69 73 69 64 61 58 57
263 270 277 280 289 304 309 308 313 318 319 331 348 14 20 278 191 141 231 267 269 254 241 252 253 251 251 123 109 173 219 228 251 170 176 181 166 167 200 205 217 238 221 204 215 228 235 254 250 224 227 245 260 271 271 270 268 253 239 241 255 261 262 269 321 350 337 305 289 297 294 260 263 287 297 272 139 84 81 82 72 66 69 67 66 62 57 57
252 262 272 271 274 292 300 299 296 263 255 269 224 316 334 316 194 169 261 267 248 258 4 48 76 71 63 88 117 188 236 209 40 102 165 198 203 150 203 218 215 237 232 229 233 238 249 268 276 217 221 241 256 263 256 242 270 270 246 245 257 270 285 305 338 353 340 305 296 42 344 251 257 298 285 266 107 84 78 82 78 71 66 60 59 56 53 54
243 255 267 262 253 256 284 295 247 218 258 216 189 282 313 321 222 182 300 280 250 223 98 148 147 164 156 133 152 174 275 213 48 66 138 343 311 203 246 202 187 242 244 249 257 253 234 166 66 148 198 199 220 254 254 221 241 259 242 304 318 357 359 341 349 5 283 272 252 152 281 264 261 265 261 251 113 96 84 82 82 76 73 69 63 49 41 47
241 250 257 250 233 218 236 296 259 251 241 164 212 261 298 304 240 222 257 277 262 165 119 263 4 153 152 136 179 179 171 161 112 65 86 356 312 87 274 196 163 236 236 43 344 274 194 142 66 67 178 190 209 249 247 190 194 244 241 352 5 37 15 346 338 244 237 271 266 228 226 264 267 251 250 216 116 105 100 93 88 81 75 75 74 58 39 42
237 239 242 237 222 210 216 241 277 263 156 131 195 261 317 294 235 264 274 270 275 132 120 334 94 118 125 114 201 222 117 151 144 58 30 339 321 97 239 245 280 286 166 145 197 313 93 146 154 165 173 204 210 259 293 172 179 220 228 359 29 61 296 261 240 250 265 307 284 215 180 238 269 258 245 181 121 116 125 115 105 96 84 77 76 67 47 36
224 220 219 215 208 210 222 232 243 243 161 129 218 299 324 287 246 29 220 250 284 80 78 80 119 138 137 137 198 206 143 160 178 96 130 203 182 98 233 253 312 316 206 181 219 279 23 144 212 172 174 212 196 350 350 38 175 206 249 314 322 233 240 238 233 253 300 290 259 214 176 191 276 266 239 163 132 138 140 126 115 106 98 88 79 73 59 33
220 218 215 211 207 212 221 227 232 233 221 212 278 303 316 314 279 185 206 226 296 84 112 111 116 147 170 179 182 186 182 138 108 134 166 157 138 211 232 151 336 317 289 246 254 261 224 72 343 223 209 189 122 80 9 38 104 233 314 333 301 259 225 215 219 172 340 266 247 230 198 185 277 283 230 117 148 153 142 138 131 114 102 95 85 74 65 46
219 220 216 211 210 206 198 219 231 226 225 238 257 303 3 15 210 209 216 222 87 147 145 136 105 148 187 205 142 177 199 134 132 157 177 143 139 190 257 173 89 337 311 298 275 260 214 171 225 236 246 149 116 79 10 31 44 33 23 4 328 300 182 127 79 118 178 253 269 276 199 183 216 283 330 38 101 146 149 149 141 121 104 92 83 78 70 55
209 205 197 199 200 195 190 198 223 215 216 222 211 134 129 202 223 217 200 115 172 206 155 120 153 173 189 173 111 167 173 133 155 185 182 159 164 187 203 198 164 163 253 251 294 276 221 208 191 157 313 167 125 70 2 0 35 84 92 25 325 319 331 264 244 166 217 239 269 357 43 181 219 276 308 33 60 90 118 126 126 119 109 96 88 85 74 59
201 197 192 197 195 189 196 205 209 200 194 184 165 151 191 210 222 185 167 198 209 148 88 68 83 172 166 151 146 136 63 101 162 184 339 130 168 212 206 208 213 229 240 296 0 324 289 255 162 146 330 191 164 161 208 303 146 158 173 161 176 273 299 269 260 245 249 252 270 14 28 336 239 280 328 76 70 57 77 92 99 104 104 100 96 85 75 67
198 196 195 199 197 194 201 204 200 175 168 156 135 186 207 219 236 126 185 216 200 86 76 65 80 80 248 209 171 146 136 187 154 121 38 141 163 230 218 215 217 207 122 56 344 253 278 314 180 171 225 173 183 200 204 146 170 194 198 162 175 208 232 249 265 261 262 283 297 350 30 252 216 225 78 91 86 71 75 82 85 89 90 91 87 75 71 66
195 195 196 199 200 203 201 195 185 165 161 151 132 200 214 219 165 122 205 226 186 113 76 33 107 143 232 210 168 174 182 177 158 143 196 192 196 224 220 205 191 160 101 127 248 140 207 258 193 167 210 172 190 255 354 51 172 232 220 110 204 214 210 254 271 260 274 298 287 252 228 260 259 100 99 94 88 82 81 85 88 87 87 84 77 73 71 60
196 198 202 202 204 206 199 192 181 171 171 163 177 212 221 213 174 166 219 273 204 130 114 88 148 171 225 207 175 192 179 145 165 169 195 204 230 229 213 174 164 168 159 166 217 193 214 236 146 126 239 181 184 309 20 54 276 352 53 161 235 212 140 267 276 271 270 268 262 251 259 281 330 103 112 101 94 95 94 91 92 91 88 85 83 93 102 88
195 201 216 216 213 205 196 192 181 175 181 194 208 217 210 198 224 240 28 29 318 103 128 181 197 177 213 218 184 172 152 132 163 167 185 194 249 221 192 153 104 171 177 150 241 237 230 260 209 184 226 234 244 328 355 51 114 116 206 240 267 358 62 228 257 266 256 255 248 244 263 277 277 252 137 121 111 107 109 104 103 102 97 99 115 124 114 92
175 170 261 237 221 207 190 187 179 173 189 218 218 227 205 181 211 231 72 71 15 31 138 205 212 162 207 229 197 143 134 124 142 150 179 184 211 176 169 174 25 25 47 83 96 271 333 274 258 243 225 217 242 9 354 342 62 141 208 262 80 200 278 244 225 227 241 259 257 230 248 258 250 255 149 142 136 123 123 124 122 124 126 130 132 126 108 91
141 111 289 238 217 206 188 175 166 163 226 228 225 231 213 212 265 303 64 44 359 32 172 236 225 184 236 248 20 113 145 167 161 166 179 172 207 185 135 75 34 12 21 78 128 320 46 238 267 8 73 109 44 39 199 290 358 80 33 344 119 168 212 225 246 257 239 258 268 243 245 251 256 318 49 123 135 136 140 136 129 129 132 135 133 130 125 123
130 102 283 197 198 195 178 162 156 176 227 227 233 232 109 334 268 262 102 105 326 38 178 272 257 228 256 285 315 279 186 201 215 218 223 227 273 8 47 35 61 55 13 46 121 85 66 245 248 321 8 61 60 196 168 197 323 45 45 294 250 171 228 275 276 246 233 257 269 262 256 253 314 358 57 99 114 130 133 127 123 123 121 125 134 140 149 160
146 247 223 170 181 178 161 153 177 201 219 228 232 231 217 219 218 171 106 129 159 127 123 268 256 242 259 272 270 255 232 249 234 223 234 233 247 289 19 0 30 61 18 28 60 75 153 232 223 296 301 266 246 255 36 319 280 223 154 205 260 247 210 283 269 230 216 238 239 254 262 251 281 344 64 91 93 106 120 126 131 140 142 143 148 150 160 176
191 200 150 159 171 167 156 170 203 188 219 227 218 212 211 220 199 172 151 147 178 190 168 203 231 233 239 242 242 235 235 237 211 213 226 218 230 241 207 219 66 73 69 67 60 44 65 101 148 267 259 254 265 279 309 311 281 238 199 211 255 243 178 211 258 253 247 262 250 248 255 238 238 327 71 101 109 112 126 139 141 155 163 159 166 171 175 189
208 169 128 155 172 171 166 200 200 195 228 223 216 213 201 206 211 192 180 172 180 197 194 200 214 220 225 226 231 234 237 234 212 218 229 222 239 50 129 164 106 98 87 65 54 44 56 94 199 253 257 266 271 273 337 15 2 249 259 308 233 251 199 189 232 231 215 275 276 263 256 246 264 308 56 102 112 118 135 148 152 168 175 168 175 179 180 184
193 141 106 166 182 188 194 202 194 206 219 214 222 221 211 213 212 204 199 188 180 195 206 210 213 220 225 223 227 231 231 240 232 218 216 220 189 64 60 40 46 66 45 7 212 203 296 196 149 247 280 288 283 276 346 20 31 38 307 334 347 298 300 307 268 212 205 225 233 249 260 240 219 272 206 135 129 135 153 166 166 170 176 179 178 169 163 155
186 141 75 174 191 205 226 221 204 215 212 213 224 223 222 224 209 210 217 204 194 205 213 216 216 226 237 230 234 239 232 242 236 196 158 178 128 66 38 32 44 62 53 47 71 122 229 191 133 182 244 254 264 264 254 51 56 63 273 279 281 269 269 288 309 264 251 234 227 254 265 263 285 270 236 182 157 165 182 192 188 178 175 175 165 156 154 146
192 174 126 160 197 222 248 277 275 249 212 210 221 222 222 224 212 205 214 215 213 214 216 228 203 200 271 236 224 230 230 231 227 210 172 144 138 87 62 65 66 80 92 61 50 69 126 231 202 210 230 243 256 269 288 308 292 272 277 279 276 266 253 252 255 255 273 308 277 261 265 277 287 281 279 274 153 177 210 213 201 188 172 156 141 140 144 143
222 209 178 161 185 216 228 238 232 235 237 220 216 213 216 220 219 198 197 205 213 213 215 214 199 194 212 216 216 219 221 220 217 217 218 198 151 113 111 96 83 103 134 110 79 111 121 240 231 220 235 247 257 270 284 291 280 271 278 277 276 275 261 243 246 257 293 312 267 264 276 282 281 282 295 310 283 255 265 241 199 177 158 137 127 138 156 209
234 302 202 184 195 202 209 218 211 216 237 246 240 232 224 220 215 208 194 175 155 235 218 204 209 213 214 218 221 216 216 221 222 218 213 198 127 108 121 98 94 152 163 96 42 110 125 243 251 244 254 259 265 270 274 281 283 281 277 275 277 275 264 256 257 256 252 255 261 273 280 278 279 285 290 296 297 296 300 267 131 121 127 132 141 170 199 222
212 312 276 289 274 202 195 191 192 208 225 235 242 244 239 230 222 211 158 146 162 232 217 210 217 214 217 229 224 214 216 211 215 231 92 81 64 92 127 83 84 164 150 86 339 153 140 238 255 263 271 269 265 267 274 279 278 274 269 267 266 264 264 267 271 265 255 258 267 275 277 276 280 284 286 299 327 9 69 84 94 109 132 148 163 195 219 231
292 353 274 314 340 158 97 162 179 199 219 225 232 236 235 239 235 219 119 152 184 196 206 219 220 158 93 174 184 189 194 142 135 135 110 102 63 83 142 201 104 132 92 72 294 289 204 209 141 66 292 278 270 271 275 262 262 267 267 263 258 261 268 270 269 271 270 269 270 271 273 274 274 283 295 64 89 85 88 97 111 131 139 139 164 230 244 253
290 337 303 310 230 170 109 171 183 192 213 218 224 229 220 228 234 227 112 119 148 170 191 188 167 115 96 142 148 129 112 117 127 136 125 129 145 104 89 47 113 118 89 74 9 319 287 259 357 57 264 271 276 280 273 259 266 270 263 258 256 257 263 261 260 262 262 267 272 271 270 269 264 99 100 123 103 83 83 91 85 82 105 116 209 265 272 284
165 280 254 275 273 180 157 168 186 198 216 213 218 226 222 225 230 223 212 86 65 51 99 129 128 124 143 157 131 90 89 98 102 97 96 104 97 87 96 93 119 147 166 164 160 194 184 174 213 211 237 268 272 281 319 299 270 263 254 252 253 253 256 257 257 254 251 256 265 264 259 252 218 140 136 145 91 75 57 62 70 341 321 205 233 251 260 268